Location: Lucerne Valley
(34.4439°N, 116.9669°E)
Time: 18:26:48
(UTC-08:00)

Hubble Space Telescope - Pass Details

Date: 08 October 2017
Orbit: 537 x 541 km, 28.5° (Epoch: 16 December)

Event Time Altitude Azimuth Distance (km) Brightness Sun altitude
Exits shadow 13:35:13 31° 190° (S) 958 1.8 -20.9°
Maximum altitude 13:35:15 31° 189° (S) 958 1.9 -20.8°
Drops below altitude 10° 13:38:55 10° 126° (SE) 1,785 4.1 -20.1°
Sets 13:41:21 0° 116° (ESE) 2,676 5.3 -19.6°
